| time (UTC) | temp F | wind direction | speed MPH | gust MPH | rain 1hr in | rain 24hr in | rain mn in | humidity % | barometer mb |
| 20260506181012 | 72 | 200 | 4.0 | 11.0 | 0.00 | 0.00 | 0.00 | 50 | 1003.9 |
| 20260506180455 | 72 | 170 | 5.0 | 11.0 | 0.00 | 0.00 | 0.00 | 50 | 1003.9 |
| 20260506180023 | 72 | 196 | 3.0 | 10.0 | 0.00 | 0.00 | 0.00 | 50 | 1003.4 |
| 20260506175945 | 72 | 140 | 5.0 | 10.0 | 0.00 | 0.00 | 0.00 | 50 | 1003.9 |
| 20260506175434 | 73 | 165 | 4.0 | 11.0 | 0.00 | 0.00 | 0.00 | 49 | 1003.8 |
| 20260506174920 | 73 | 151 | 4.0 | 11.0 | 0.00 | 0.00 | 0.00 | 50 | 1003.8 |
| 20260506174555 | 72 | 247 | 4.0 | 11.0 | 0.00 | 0.00 | 0.00 | 49 | 1003.4 |
| 20260506174412 | 73 | 219 | 4.0 | 11.0 | 0.00 | 0.00 | 0.00 | 50 | 1003.8 |
| 20260506173358 | 73 | 196 | 4.0 | 10.0 | 0.00 | 0.00 | 0.00 | 50 | 1003.9 |
| 20260506173132 | 73 | 227 | 3.0 | 10.0 | 0.00 | 0.00 | 0.00 | 50 | 1003.5 |
| 20260506172847 | 73 | 225 | 3.0 | 10.0 | 0.00 | 0.00 | 0.00 | 50 | 1004.0 |
| 20260506172332 | 74 | 186 | 4.0 | 10.0 | 0.00 | 0.00 | 0.00 | 50 | 1003.9 |
| 20260506171815 | 74 | 213 | 5.0 | 12.0 | 0.00 | 0.00 | 0.00 | 50 | 1003.8 |
| 20260506171550 | 73 | 176 | 4.0 | 10.0 | 0.00 | 0.00 | 0.00 | 50 | 1003.4 |
| 20260506170751 | 74 | 234 | 4.0 | 10.0 | 0.00 | 0.00 | 0.00 | 50 | 1003.8 |
| 20260506170244 | 74 | 242 | 5.0 | 17.0 | 0.00 | 0.00 | 0.00 | 49 | 1003.8 |
| 20260506170118 | 74 | 207 | 5.0 | 16.0 | 0.00 | 0.00 | 0.00 | 49 | 1003.4 |
| 20260506165226 | 74 | 161 | 5.0 | 12.0 | 0.00 | 0.00 | 0.00 | 50 | 1003.8 |
| 20260506164728 | 74 | 161 | 3.0 | 8.0 | 0.00 | 0.00 | 0.00 | 51 | 1003.9 |
| 20260506164500 | 73 | 187 | 3.0 | 8.0 | 0.00 | 0.00 | 0.00 | 51 | 1003.4 |
| 20260506164217 | 74 | 219 | 3.0 | 8.0 | 0.00 | 0.00 | 0.00 | 52 | 1003.9 |
| 20260506163705 | 74 | 240 | 3.0 | 8.0 | 0.00 | 0.00 | 0.00 | 52 | 1003.9 |
| 20260506163153 | 73 | 233 | 3.0 | 8.0 | 0.00 | 0.00 | 0.00 | 52 | 1003.9 |
| 20260506163052 | 73 | 246 | 2.0 | 7.0 | 0.00 | 0.00 | 0.00 | 52 | 1003.5 |
| 20260506162646 | 73 | 217 | 3.0 | 8.0 | 0.00 | 0.00 | 0.00 | 51 | 1004.0 |
| 20260506162156 | 73 | 225 | 4.0 | 8.0 | 0.00 | 0.00 | 0.00 | 51 | 1004.0 |
| 20260506161648 | 73 | 245 | 4.0 | 8.0 | 0.00 | 0.00 | 0.00 | 51 | 1004.1 |
| 20260506161510 | 73 | 240 | 3.0 | 8.0 | 0.00 | 0.00 | 0.00 | 51 | 1003.7 |
| 20260506161139 | 73 | 238 | 3.0 | 8.0 | 0.00 | 0.00 | 0.00 | 51 | 1004.2 |
| 20260506160633 | 74 | 218 | 3.0 | 7.0 | 0.00 | 0.00 | 0.00 | 50 | 1004.2 |
| 20260506160122 | 74 | 278 | 4.0 | 10.0 | 0.00 | 0.00 | 0.00 | 50 | 1004.3 |
| 20260506160045 | 73 | 278 | 4.0 | 10.0 | 0.00 | 0.00 | 0.00 | 50 | 1003.9 |
| 20260506155601 | 74 | 225 | 5.0 | 12.0 | 0.00 | 0.00 | 0.00 | 49 | 1004.3 |
| 20260506155048 | 74 | 234 | 5.0 | 12.0 | 0.00 | 0.00 | 0.00 | 49 | 1004.4 |
| 20260506154533 | 74 | 252 | 3.0 | 12.0 | 0.00 | 0.00 | 0.00 | 50 | 1004.5 |
| 20260506154026 | 74 | 245 | 3.0 | 6.0 | 0.00 | 0.00 | 0.00 | 50 | 1004.5 |
| 20260506153518 | 74 | 193 | 4.0 | 11.0 | 0.00 | 0.00 | 0.00 | 50 | 1004.6 |
| 20260506153051 | 74 | 222 | 4.0 | 11.0 | 0.00 | 0.00 | 0.00 | 49 | 1004.1 |
| 20260506153004 | 74 | 237 | 5.0 | 11.0 | 0.00 | 0.00 | 0.00 | 49 | 1004.5 |
| 20260506152502 | 74 | 220 | 5.0 | 12.0 | 0.00 | 0.00 | 0.00 | 50 | 1004.6 |
| 20260506151530 | 74 | 189 | 6.0 | 12.0 | 0.00 | 0.00 | 0.00 | 49 | 1004.2 |
| 20260506151448 | 74 | 207 | 6.0 | 11.0 | 0.00 | 0.00 | 0.00 | 49 | 1004.8 |
| 20260506150943 | 74 | 271 | 5.0 | 9.0 | 0.00 | 0.00 | 0.00 | 49 | 1004.9 |
| 20260506150435 | 75 | 238 | 5.0 | 9.0 | 0.00 | 0.00 | 0.00 | 48 | 1004.9 |
| 20260506145920 | 75 | 229 | 6.0 | 10.0 | 0.00 | 0.00 | 0.00 | 49 | 1004.9 |
| 20260506145406 | 75 | 218 | 6.0 | 10.0 | 0.00 | 0.00 | 0.00 | 49 | 1005.0 |
| 20260506144853 | 75 | 241 | 4.0 | 11.0 | 0.00 | 0.00 | 0.00 | 48 | 1004.9 |
| 20260506144523 | 74 | 238 | 4.0 | 9.0 | 0.00 | 0.00 | 0.00 | 49 | 1004.4 |
| 20260506144342 | 75 | 244 | 4.0 | 11.0 | 0.00 | 0.00 | 0.00 | 49 | 1005.0 |
| 20260506143831 | 75 | 232 | 6.0 | 14.0 | 0.00 | 0.00 | 0.00 | 47 | 1004.9 |
| 20260506143104 | 75 | 252 | 8.0 | 14.0 | 0.00 | 0.00 | 0.00 | 47 | 1004.4 |
| 20260506142813 | 75 | 216 | 4.0 | 11.0 | 0.00 | 0.00 | 0.00 | 48 | 1005.1 |
| 20260506142258 | 75 | 238 | 5.0 | 13.0 | 0.00 | 0.00 | 0.00 | 49 | 1005.1 |
| 20260506141750 | 75 | 235 | 5.0 | 13.0 | 0.00 | 0.00 | 0.00 | 48 | 1005.2 |
| 20260506141520 | 74 | 238 | 6.0 | 13.0 | 0.00 | 0.00 | 0.00 | 48 | 1004.7 |
| 20260506141238 | 75 | 244 | 5.0 | 11.0 | 0.00 | 0.00 | 0.00 | 48 | 1005.2 |
| 20260506140212 | 76 | 244 | 8.0 | 15.0 | 0.00 | 0.00 | 0.00 | 46 | 1005.4 |
| 20260506140046 | 75 | 241 | 5.0 | 15.0 | 0.00 | 0.00 | 0.00 | 46 | 1004.8 |
| 20260506135702 | 75 | 225 | 8.0 | 16.0 | 0.00 | 0.00 | 0.00 | 46 | 1005.4 |
| 20260506135146 | 75 | 242 | 8.0 | 16.0 | 0.00 | 0.00 | 0.00 | 45 | 1005.4 |
| 20260506134630 | 75 | 200 | 9.0 | 19.0 | 0.00 | 0.00 | 0.00 | 44 | 1005.3 |
| 20260506134505 | 75 | 197 | 9.0 | 19.0 | 0.00 | 0.00 | 0.00 | 44 | 1004.8 |
| 20260506134120 | 76 | 180 | 8.0 | 19.0 | 0.00 | 0.00 | 0.00 | 45 | 1005.3 |
| 20260506133606 | 76 | 175 | 7.0 | 15.0 | 0.00 | 0.00 | 0.00 | 45 | 1005.3 |
| 20260506133056 | 76 | 241 | 6.0 | 15.0 | 0.00 | 0.00 | 0.00 | 46 | 1005.4 |
| 20260506133033 | 75 | 281 | 9.0 | 15.0 | 0.00 | 0.00 | 0.00 | 45 | 1004.8 |
| 20260506132546 | 76 | 245 | 5.0 | 14.0 | 0.00 | 0.00 | 0.00 | 45 | 1005.4 |
| 20260506132032 | 76 | 217 | 5.0 | 13.0 | 0.00 | 0.00 | 0.00 | 45 | 1005.3 |
| 20260506131600 | 76 | 248 | 5.0 | 13.0 | 0.00 | 0.00 | 0.00 | 45 | 1004.9 |
| 20260506131520 | 76 | 257 | 4.0 | 14.0 | 0.00 | 0.00 | 0.00 | 45 | 1005.5 |
| 20260506131009 | 76 | 218 | 5.0 | 14.0 | 0.00 | 0.00 | 0.00 | 47 | 1005.5 |
| 20260506130457 | 76 | 228 | 6.0 | 14.0 | 0.00 | 0.00 | 0.00 | 47 | 1005.5 |
| 20260506130023 | 75 | 207 | 8.0 | 18.0 | 0.00 | 0.00 | 0.00 | 46 | 1004.9 |
| 20260506125944 | 75 | 205 | 7.0 | 18.0 | 0.00 | 0.00 | 0.00 | 46 | 1005.5 |
| 20260506125428 | 75 | 214 | 7.0 | 18.0 | 0.00 | 0.00 | 0.00 | 45 | 1005.6 |
| 20260506124918 | 75 | 223 | 8.0 | 18.0 | 0.00 | 0.00 | 0.00 | 45 | 1005.7 |
| 20260506124546 | 74 | 184 | 7.0 | 17.0 | 0.00 | 0.00 | 0.00 | 46 | 1005.2 |
| 20260506124404 | 75 | 216 | 8.0 | 18.0 | 0.00 | 0.00 | 0.00 | 46 | 1005.7 |
| 20260506123851 | 76 | 238 | 7.0 | 16.0 | 0.00 | 0.00 | 0.00 | 47 | 1005.7 |
| 20260506123336 | 75 | 188 | 7.0 | 16.0 | 0.00 | 0.00 | 0.00 | 46 | 1005.7 |
| 20260506123002 | 74 | 160 | 5.0 | 16.0 | 0.00 | 0.00 | 0.00 | 47 | 1005.3 |
| 20260506122822 | 75 | 254 | 8.0 | 17.0 | 0.00 | 0.00 | 0.00 | 47 | 1005.9 |
| 20260506122306 | 75 | 223 | 7.0 | 17.0 | 0.00 | 0.00 | 0.00 | 47 | 1005.8 |
| 20260506121754 | 75 | 181 | 7.0 | 16.0 | 0.00 | 0.00 | 0.00 | 50 | 1005.7 |
| 20260506121538 | 74 | 263 | 4.0 | 16.0 | 0.00 | 0.00 | 0.00 | 51 | 1005.3 |
| 20260506121249 | 74 | 206 | 7.0 | 16.0 | 0.00 | 0.00 | 0.00 | 51 | 1005.9 |
| 20260506120733 | 73 | 266 | 8.0 | 16.0 | 0.00 | 0.00 | 0.00 | 50 | 1005.8 |
| 20260506120218 | 74 | 248 | 9.0 | 17.0 | 0.00 | 0.00 | 0.00 | 51 | 1005.9 |
| 20260506120057 | 73 | 255 | 9.0 | 17.0 | 0.00 | 0.00 | 0.00 | 50 | 1005.4 |
| 20260506115702 | 74 | 202 | 8.0 | 17.0 | 0.00 | 0.00 | 0.00 | 50 | 1005.8 |
| 20260506115148 | 74 | 222 | 7.0 | 14.0 | 0.00 | 0.00 | 0.00 | 50 | 1005.9 |
| 20260506114631 | 74 | 248 | 8.0 | 16.0 | 0.00 | 0.00 | 0.00 | 49 | 1005.9 |
| 20260506114504 | 73 | 263 | 5.0 | 16.0 | 0.00 | 0.00 | 0.00 | 50 | 1005.4 |
| 20260506114116 | 74 | 213 | 9.0 | 16.0 | 0.00 | 0.00 | 0.00 | 50 | 1005.9 |
| 20260506113049 | 74 | 157 | 8.0 | 16.0 | 0.00 | 0.00 | 0.00 | 51 | 1005.8 |
| 20260506113023 | 73 | 137 | 5.0 | 16.0 | 0.00 | 0.00 | 0.00 | 51 | 1005.3 |
| 20260506112545 | 73 | 198 | 9.0 | 15.0 | 0.00 | 0.00 | 0.00 | 53 | 1005.9 |
| 20260506111542 | 72 | 243 | 9.0 | 18.0 | 0.00 | 0.00 | 0.00 | 53 | 1005.4 |
| 20260506110949 | 73 | 199 | 9.0 | 18.0 | 0.00 | 0.00 | 0.00 | 53 | 1005.9 |
| 20260506110437 | 72 | 236 | 8.0 | 18.0 | 0.00 | 0.00 | 0.00 | 54 | 1006.0 |
| 20260506110006 | 72 | 215 | 8.0 | 15.0 | 0.00 | 0.00 | 0.00 | 53 | 1005.5 |
| 20260506105925 | 73 | 160 | 6.0 | 17.0 | 0.00 | 0.00 | 0.00 | 54 | 1006.0 |
| 20260506104856 | 72 | 242 | 8.0 | 16.0 | 0.00 | 0.00 | 0.00 | 53 | 1006.1 |
| 20260506104626 | 72 | 230 | 10.0 | 16.0 | 0.00 | 0.00 | 0.00 | 54 | 1005.6 |
| 20260506104345 | 72 | 225 | 7.0 | 17.0 | 0.00 | 0.00 | 0.00 | 54 | 1006.2 |
| 20260506103831 | 72 | 252 | 8.0 | 17.0 | 0.00 | 0.00 | 0.00 | 54 | 1006.2 |
| 20260506103150 | 71 | 238 | 7.0 | 21.0 | 0.00 | 0.00 | 0.00 | 55 | 1005.6 |
| 20260506102803 | 72 | 187 | 8.0 | 22.0 | 0.00 | 0.00 | 0.00 | 55 | 1006.3 |
| 20260506102251 | 72 | 240 | 8.0 | 17.0 | 0.00 | 0.00 | 0.00 | 56 | 1006.1 |
| 20260506101735 | 71 | 195 | 9.0 | 16.0 | 0.00 | 0.00 | 0.00 | 56 | 1006.2 |
| 20260506101503 | 71 | 173 | 9.0 | 16.0 | 0.00 | 0.00 | 0.00 | 56 | 1005.6 |
| 20260506101221 | 71 | 269 | 8.0 | 19.0 | 0.00 | 0.00 | 0.00 | 57 | 1006.2 |
| 20260506100709 | 71 | 197 | 7.0 | 19.0 | 0.00 | 0.00 | 0.00 | 57 | 1006.1 |
| 20260506100205 | 71 | 200 | 8.0 | 17.0 | 0.00 | 0.00 | 0.00 | 56 | 1006.2 |
| 20260506100128 | 71 | 225 | 9.0 | 17.0 | 0.00 | 0.00 | 0.00 | 56 | 1005.7 |
| 20260506095642 | 71 | 201 | 9.0 | 19.0 | 0.00 | 0.00 | 0.00 | 57 | 1006.2 |
| 20260506095124 | 71 | 247 | 8.0 | 19.0 | 0.00 | 0.00 | 0.00 | 57 | 1006.2 |
| 20260506094611 | 71 | 261 | 8.0 | 16.0 | 0.00 | 0.00 | 0.00 | 58 | 1006.2 |
| 20260506094606 | 70 | 249 | 6.0 | 16.0 | 0.00 | 0.00 | 0.00 | 58 | 1005.7 |
| 20260506094058 | 70 | 247 | 9.0 | 16.0 | 0.00 | 0.00 | 0.00 | 58 | 1006.2 |
| 20260506093033 | 70 | 246 | 7.0 | 19.0 | 0.00 | 0.00 | 0.00 | 60 | 1006.1 |
| 20260506093006 | 69 | 245 | 9.0 | 19.0 | 0.00 | 0.00 | 0.00 | 60 | 1005.7 |
| 20260506092518 | 69 | 202 | 8.0 | 14.0 | 0.00 | 0.00 | 0.00 | 60 | 1006.2 |
| 20260506092006 | 69 | 260 | 9.0 | 18.0 | 0.00 | 0.00 | 0.00 | 59 | 1006.1 |
| 20260506091534 | 69 | 219 | 9.0 | 18.0 | 0.00 | 0.00 | 0.00 | 59 | 1005.6 |
| 20260506091457 | 70 | 253 | 9.0 | 19.0 | 0.00 | 0.00 | 0.00 | 60 | 1006.1 |
| 20260506090430 | 69 | 199 | 9.0 | 24.0 | 0.00 | 0.00 | 0.00 | 60 | 1006.1 |
| 20260506085414 | 69 | 190 | 10.0 | 21.0 | 0.00 | 0.00 | 0.00 | 60 | 1006.0 |
| 20260506084905 | 69 | 231 | 9.0 | 18.0 | 0.00 | 0.00 | 0.00 | 62 | 1006.0 |
| 20260506084549 | 69 | 244 | 10.0 | 18.0 | 0.00 | 0.00 | 0.00 | 61 | 1005.4 |
| 20260506084406 | 69 | 221 | 7.0 | 18.0 | 0.00 | 0.00 | 0.00 | 62 | 1006.0 |
| 20260506083908 | 69 | 221 | 7.0 | 19.0 | 0.00 | 0.00 | 0.00 | 62 | 1005.9 |
| 20260506083402 | 69 | 257 | 6.0 | 19.0 | 0.00 | 0.00 | 0.00 | 61 | 1005.9 |
| 20260506083039 | 68 | 248 | 3.0 | 15.0 | 0.00 | 0.00 | 0.00 | 63 | 1005.2 |
| 20260506082856 | 69 | 245 | 6.0 | 15.0 | 0.00 | 0.00 | 0.00 | 62 | 1005.8 |
| 20260506081840 | 68 | 222 | 6.0 | 14.0 | 0.00 | 0.00 | 0.00 | 63 | 1005.8 |
| 20260506081513 | 68 | 152 | 6.0 | 16.0 | 0.00 | 0.00 | 0.00 | 64 | 1005.2 |
| 20260506081335 | 68 | 186 | 7.0 | 16.0 | 0.00 | 0.00 | 0.00 | 65 | 1005.8 |
| 20260506080821 | 67 | 234 | 8.0 | 20.0 | 0.00 | 0.00 | 0.00 | 65 | 1005.8 |
| 20260506080314 | 67 | 269 | 8.0 | 19.0 | 0.00 | 0.00 | 0.00 | 65 | 1005.6 |
| 20260506073223 | 66 | 250 | 7.0 | 18.0 | 0.00 | 0.00 | 0.00 | 67 | 1005.7 |
| 20260506073108 | 65 | 242 | 6.0 | 18.0 | 0.00 | 0.00 | 0.00 | 67 | 1005.1 |
| 20260506072715 | 66 | 232 | 7.0 | 18.0 | 0.00 | 0.00 | 0.00 | 67 | 1005.7 |
| 20260506072205 | 65 | 254 | 7.0 | 15.0 | 0.00 | 0.00 | 0.00 | 68 | 1005.7 |
| 20260506071651 | 65 | 252 | 6.0 | 15.0 | 0.00 | 0.00 | 0.00 | 68 | 1005.7 |
| 20260506071530 | 65 | 219 | 6.0 | 13.0 | 0.00 | 0.00 | 0.00 | 68 | 1005.1 |
| 20260506071142 | 65 | 250 | 7.0 | 15.0 | 0.00 | 0.00 | 0.00 | 68 | 1005.6 |
| 20260506070627 | 64 | 255 | 8.0 | 17.0 | 0.00 | 0.00 | 0.00 | 68 | 1005.5 |
| 20260506061423 | 62 | 194 | 8.0 | 19.0 | 0.00 | 0.00 | 0.00 | 70 | 1005.5 |
| 20260506060904 | 62 | 213 | 8.0 | 19.0 | 0.00 | 0.00 | 0.00 | 70 | 1005.4 |
| 20260506060351 | 62 | 225 | 9.0 | 25.0 | 0.00 | 0.00 | 0.00 | 71 | 1005.3 |
| 20260506051132 | 60 | 213 | 5.0 | 10.0 | 0.00 | 0.00 | 0.00 | 74 | 1005.1 |
| 20260506050618 | 59 | 188 | 4.0 | 11.0 | 0.00 | 0.00 | 0.00 | 73 | 1005.1 |
| 20260506045037 | 59 | 236 | 2.0 | 8.0 | 0.00 | 0.00 | 0.00 | 74 | 1005.0 |
| 20260506044523 | 59 | 208 | 2.0 | 7.0 | 0.00 | 0.00 | 0.00 | 74 | 1005.1 |
| 20260506044009 | 59 | 170 | 2.0 | 6.0 | 0.00 | 0.00 | 0.00 | 74 | 1005.0 |
| 20260506043021 | 58 | 246 | 2.0 | 6.0 | 0.00 | 0.00 | 0.00 | 75 | 1004.4 |
| 20260506042944 | 58 | 252 | 2.0 | 6.0 | 0.00 | 0.00 | 0.00 | 75 | 1005.0 |
| 20260506042429 | 58 | 239 | 2.0 | 7.0 | 0.00 | 0.00 | 0.00 | 75 | 1004.9 |
| 20260506041915 | 58 | 236 | 2.0 | 7.0 | 0.00 | 0.00 | 0.00 | 75 | 1004.9 |
| 20260506041550 | 57 | 199 | 2.0 | 7.0 | 0.00 | 0.00 | 0.00 | 76 | 1004.3 |
| 20260506041404 | 58 | 190 | 1.0 | 7.0 | 0.00 | 0.00 | 0.00 | 76 | 1004.8 |
| 20260506040847 | 57 | 193 | 1.0 | 7.0 | 0.00 | 0.00 | 0.00 | 77 | 1004.8 |
| 20260506040333 | 57 | 227 | 0.0 | 2.0 | 0.00 | 0.00 | 0.00 | 78 | 1004.8 |
| 20260506040001 | 56 | 227 | 0.0 | 3.0 | 0.00 | 0.00 | 0.00 | 78 | 1004.3 |
| 20260506035819 | 56 | 227 | 1.0 | 4.0 | 0.00 | 0.00 | 0.00 | 79 | 1004.8 |
| 20260506035306 | 56 | 227 | 1.0 | 4.0 | 0.00 | 0.00 | 0.00 | 80 | 1004.6 |
| 20260506034749 | 55 | 240 | 0.0 | 2.0 | 0.00 | 0.00 | 0.00 | 81 | 1004.8 |
| 20260506034518 | 54 | 229 | 0.0 | 2.0 | 0.00 | 0.00 | 0.00 | 82 | 1004.1 |
| 20260506034235 | 54 | 242 | 0.0 | 2.0 | 0.00 | 0.00 | 0.00 | 82 | 1004.5 |
| 20260506033720 | 54 | 242 | 0.0 | 2.0 | 0.00 | 0.00 | 0.00 | 83 | 1004.5 |
| 20260506033208 | 53 | 242 | 0.0 | 2.0 | 0.00 | 0.00 | 0.00 | 85 | 1004.5 |
| 20260506033037 | 53 | 240 | 0.0 | 2.0 | 0.00 | 0.00 | 0.00 | 86 | 1004.1 |
| 20260506032651 | 52 | 240 | 0.0 | 2.0 | 0.00 | 0.00 | 0.00 | 87 | 1004.5 |
| 20260506031605 | 50 | 244 | 0.0 | 0.0 | 0.00 | 0.00 | 0.00 | 86 | 1004.2 |
| 20260506031110 | 50 | 244 | 0.0 | 0.0 | 0.00 | 0.00 | 0.00 | 85 | 1004.6 |
| 20260506030059 | 50 | 244 | 0.0 | 0.0 | 0.00 | 0.00 | 0.00 | 85 | 1004.6 |
| 20260506030021 | 50 | 244 | 0.0 | 0.0 | 0.00 | 0.00 | 0.00 | 85 | 1004.1 |
| 20260506025534 | 50 | 244 | 0.0 | 0.0 | 0.00 | 0.00 | 0.00 | 84 | 1004.6 |
| 20260506025018 | 50 | 244 | 0.0 | 0.0 | 0.00 | 0.00 | 0.00 | 84 | 1004.8 |
| 20260506024533 | 50 | 244 | 0.0 | 0.0 | 0.00 | 0.00 | 0.00 | 84 | 1004.2 |
| 20260506024456 | 51 | 244 | 0.0 | 0.0 | 0.00 | 0.00 | 0.00 | 84 | 1004.8 |
| 20260506023412 | 51 | 244 | 0.0 | 0.0 | 0.00 | 0.00 | 0.00 | 83 | 1004.9 |
| 20260506023037 | 51 | 244 | 0.0 | 0.0 | 0.00 | 0.00 | 0.00 | 83 | 1004.3 |
| 20260506022855 | 51 | 244 | 0.0 | 0.0 | 0.00 | 0.00 | 0.00 | 83 | 1004.8 |
| 20260506022343 | 51 | 244 | 0.0 | 0.0 | 0.00 | 0.00 | 0.00 | 82 | 1004.8 |
| 20260506021832 | 52 | 244 | 0.0 | 0.0 | 0.00 | 0.00 | 0.00 | 82 | 1004.9 |
| 20260506021324 | 52 | 244 | 0.0 | 0.0 | 0.00 | 0.00 | 0.00 | 81 | 1004.8 |
| 20260506020813 | 52 | 244 | 0.0 | 0.0 | 0.00 | 0.00 | 0.00 | 80 | 1004.8 |
| 20260506020301 | 53 | 244 | 0.0 | 0.0 | 0.00 | 0.00 | 0.00 | 79 | 1004.8 |
| 20260506020133 | 52 | 244 | 0.0 | 0.0 | 0.00 | 0.00 | 0.00 | 79 | 1004.2 |
| 20260506015750 | 53 | 244 | 0.0 | 0.0 | 0.00 | 0.00 | 0.00 | 79 | 1004.8 |
| 20260506015238 | 53 | 244 | 0.0 | 1.0 | 0.00 | 0.00 | 0.00 | 80 | 1004.6 |
| 20260506014728 | 53 | 244 | 0.0 | 1.0 | 0.00 | 0.00 | 0.00 | 80 | 1004.8 |
| 20260506014221 | 53 | 244 | 0.0 | 0.0 | 0.00 | 0.00 | 0.00 | 80 | 1004.8 |
| 20260506013037 | 52 | 244 | 0.0 | 2.0 | 0.00 | 0.00 | 0.00 | 80 | 1004.2 |
| 20260506012648 | 53 | 244 | 0.0 | 2.0 | 0.00 | 0.00 | 0.00 | 79 | 1004.6 |
| 20260506012147 | 53 | 241 | 0.0 | 0.0 | 0.00 | 0.00 | 0.00 | 79 | 1004.5 |
| 20260506011529 | 52 | 241 | 0.0 | 0.0 | 0.00 | 0.00 | 0.00 | 78 | 1004.1 |
| 20260506011144 | 53 | 241 | 0.0 | 0.0 | 0.00 | 0.00 | 0.00 | 78 | 1004.5 |
| 20260506010640 | 53 | 241 | 0.0 | 1.0 | 0.00 | 0.00 | 0.00 | 78 | 1004.5 |
| 20260506010017 | 53 | 241 | 0.0 | 0.0 | 0.00 | 0.00 | 0.00 | 77 | 1004.0 |
| 20260506005635 | 54 | 241 | 0.0 | 0.0 | 0.00 | 0.00 | 0.00 | 76 | 1004.5 |
| 20260506004619 | 54 | 241 | 0.0 | 0.0 | 0.00 | 0.00 | 0.00 | 75 | 1004.4 |
| 20260506004559 | 54 | 241 | 0.0 | 0.0 | 0.00 | 0.00 | 0.00 | 75 | 1004.0 |
| 20260506003614 | 55 | 241 | 0.0 | 0.0 | 0.00 | 0.00 | 0.00 | 73 | 1004.3 |
| 20260506003038 | 55 | 241 | 0.0 | 0.0 | 0.00 | 0.00 | 0.00 | 72 | 1004.0 |
| 20260506002551 | 56 | 241 | 0.0 | 0.0 | 0.00 | 0.00 | 0.00 | 71 | 1004.4 |
| 20260506002047 | 56 | 241 | 0.0 | 0.0 | 0.00 | 0.00 | 0.00 | 71 | 1004.5 |
| 20260506001533 | 56 | 241 | 0.0 | 0.0 | 0.00 | 0.00 | 0.00 | 70 | 1004.6 |
| 20260506001510 | 56 | 241 | 0.0 | 0.0 | 0.00 | 0.00 | 0.00 | 70 | 1004.2 |
| 20260506001024 | 57 | 241 | 0.0 | 0.0 | 0.00 | 0.00 | 0.00 | 69 | 1004.6 |
| 20260506000516 | 58 | 241 | 0.0 | 0.0 | 0.00 | 0.00 | 0.00 | 68 | 1004.6 |
| 20260506000044 | 58 | 241 | 0.0 | 1.0 | 0.00 | 0.00 | 0.00 | 66 | 1004.3 |
| 20260506000006 | 58 | 241 | 0.0 | 1.0 | 0.00 | 0.00 | 0.00 | 66 | 1004.8 |
| 20260505235456 | 59 | 241 | 0.0 | 1.0 | 0.00 | 0.00 | 0.00 | 66 | 1004.8 |
| 20260505234946 | 59 | 241 | 0.0 | 0.0 | 0.00 | 0.00 | 0.00 | 65 | 1004.9 |
| 20260505234511 | 59 | 241 | 0.0 | 0.0 | 0.00 | 0.00 | 0.00 | 65 | 1004.4 |
| 20260505234447 | 59 | 241 | 0.0 | 3.0 | 0.00 | 0.00 | 0.00 | 65 | 1004.9 |
| 20260505233920 | 59 | 241 | 0.0 | 3.0 | 0.00 | 0.00 | 0.00 | 66 | 1004.9 |
| 20260505233405 | 58 | 257 | 0.0 | 2.0 | 0.00 | 0.00 | 0.00 | 67 | 1004.8 |
| 20260505233042 | 57 | 257 | 0.0 | 2.0 | 0.00 | 0.00 | 0.00 | 68 | 1004.4 |
| 20260505231850 | 57 | 244 | 0.0 | 0.0 | 0.00 | 0.00 | 0.00 | 69 | 1005.0 |
| 20260505231527 | 57 | 244 | 0.0 | 0.0 | 0.00 | 0.00 | 0.00 | 68 | 1004.5 |
| 20260505231351 | 58 | 244 | 0.0 | 0.0 | 0.00 | 0.00 | 0.00 | 68 | 1005.0 |
| 20260505230827 | 58 | 244 | 0.0 | 2.0 | 0.00 | 0.00 | 0.00 | 66 | 1005.0 |
| 20260505230329 | 59 | 244 | 0.0 | 2.0 | 0.00 | 0.00 | 0.00 | 64 | 1005.1 |
| 20260505230058 | 58 | 207 | 0.0 | 0.0 | 0.00 | 0.00 | 0.00 | 64 | 1004.6 |
| 20260505225819 | 59 | 207 | 0.0 | 0.0 | 0.00 | 0.00 | 0.00 | 63 | 1005.0 |
| 20260505225306 | 60 | 207 | 0.0 | 0.0 | 0.00 | 0.00 | 0.00 | 61 | 1005.1 |
| 20260505224755 | 60 | 207 | 0.0 | 0.0 | 0.00 | 0.00 | 0.00 | 60 | 1005.1 |
| 20260505224526 | 60 | 207 | 0.0 | 0.0 | 0.00 | 0.00 | 0.00 | 60 | 1004.6 |
| 20260505224242 | 61 | 207 | 0.0 | 0.0 | 0.00 | 0.00 | 0.00 | 59 | 1005.1 |
| 20260505223730 | 62 | 207 | 0.0 | 1.0 | 0.00 | 0.00 | 0.00 | 57 | 1005.1 |
| 20260505223056 | 62 | 207 | 0.0 | 1.0 | 0.00 | 0.00 | 0.00 | 56 | 1004.6 |
| 20260505222706 | 63 | 207 | 0.0 | 1.0 | 0.00 | 0.00 | 0.00 | 55 | 1005.1 |
| 20260505222154 | 64 | 207 | 0.0 | 1.0 | 0.00 | 0.00 | 0.00 | 54 | 1005.1 |
| 20260505221642 | 65 | 207 | 0.0 | 5.0 | 0.00 | 0.00 | 0.00 | 53 | 1005.1 |
| 20260505221514 | 64 | 207 | 0.0 | 5.0 | 0.00 | 0.00 | 0.00 | 53 | 1004.7 |
| 20260505221128 | 65 | 208 | 0.0 | 5.0 | 0.00 | 0.00 | 0.00 | 52 | 1005.1 |
| 20260505220629 | 65 | 151 | 1.0 | 3.0 | 0.00 | 0.00 | 0.00 | 51 | 1005.1 |
| 20260505220146 | 65 | 105 | 1.0 | 4.0 | 0.00 | 0.00 | 0.00 | 50 | 1004.6 |
| 20260505220114 | 66 | 105 | 1.0 | 4.0 | 0.00 | 0.00 | 0.00 | 50 | 1005.1 |
| 20260505215617 | 66 | 105 | 1.0 | 4.0 | 0.00 | 0.00 | 0.00 | 50 | 1005.2 |
| 20260505215054 | 67 | 137 | 1.0 | 3.0 | 0.00 | 0.00 | 0.00 | 49 | 1005.2 |
| 20260505214553 | 67 | 187 | 1.0 | 3.0 | 0.00 | 0.00 | 0.00 | 48 | 1005.2 |
| 20260505214516 | 67 | 187 | 0.0 | 3.0 | 0.00 | 0.00 | 0.00 | 48 | 1004.7 |
| 20260505214030 | 68 | 184 | 1.0 | 3.0 | 0.00 | 0.00 | 0.00 | 47 | 1005.2 |
| 20260505213518 | 68 | 182 | 2.0 | 8.0 | 0.00 | 0.00 | 0.00 | 47 | 1005.2 |
| 20260505213043 | 68 | 184 | 3.0 | 8.0 | 0.00 | 0.00 | 0.00 | 47 | 1004.6 |
| 20260505213004 | 68 | 157 | 2.0 | 8.0 | 0.00 | 0.00 | 0.00 | 47 | 1005.1 |
| 20260505212454 | 68 | 179 | 2.0 | 7.0 | 0.00 | 0.00 | 0.00 | 46 | 1005.1 |
| 20260505211940 | 69 | 151 | 2.0 | 7.0 | 0.00 | 0.00 | 0.00 | 46 | 1005.1 |
| 20260505211611 | 68 | 159 | 1.0 | 8.0 | 0.00 | 0.00 | 0.00 | 45 | 1004.7 |
| 20260505211424 | 69 | 215 | 3.0 | 8.0 | 0.00 | 0.00 | 0.00 | 45 | 1005.1 |
| 20260505210911 | 69 | 213 | 5.0 | 15.0 | 0.00 | 0.00 | 0.00 | 45 | 1005.3 |
| 20260505210355 | 69 | 245 | 7.0 | 14.0 | 0.00 | 0.00 | 0.00 | 45 | 1005.3 |
| 20260505210028 | 69 | 259 | 3.0 | 16.0 | 0.00 | 0.00 | 0.00 | 45 | 1004.9 |
| 20260505205846 | 69 | 154 | 7.0 | 16.0 | 0.00 | 0.00 | 0.00 | 45 | 1005.3 |
| 20260505205333 | 69 | 218 | 5.0 | 11.0 | 0.00 | 0.00 | 0.00 | 46 | 1005.4 |
| 20260505204820 | 70 | 209 | 5.0 | 11.0 | 0.00 | 0.00 | 0.00 | 46 | 1005.5 |
| 20260505204553 | 69 | 188 | 5.0 | 11.0 | 0.00 | 0.00 | 0.00 | 47 | 1005.0 |
| 20260505203013 | 69 | 154 | 6.0 | 10.0 | 0.00 | 0.00 | 0.00 | 48 | 1004.9 |
| 20260505201704 | 69 | 170 | 5.0 | 10.0 | 0.00 | 0.00 | 0.00 | 49 | 1005.3 |
| 20260505201536 | 69 | 147 | 3.0 | 11.0 | 0.00 | 0.00 | 0.00 | 49 | 1004.9 |
| 20260505201152 | 69 | 143 | 4.0 | 14.0 | 0.00 | 0.00 | 0.00 | 50 | 1005.3 |
| 20260505200640 | 68 | 169 | 2.0 | 9.0 | 0.00 | 0.00 | 0.00 | 52 | 1005.3 |
| 20260505200127 | 66 | 189 | 0.0 | 9.0 | 0.00 | 0.00 | 0.00 | 53 | 1005.3 |
| 20260505200104 | 66 | 184 | 2.0 | 9.0 | 0.00 | 0.00 | 0.00 | 53 | 1004.9 |
| 20260505195623 | 66 | 152 | 0.0 | 2.0 | 0.00 | 0.00 | 0.00 | 53 | 1005.3 |
| 20260505195111 | 67 | 152 | 0.0 | 2.0 | 0.00 | 0.00 | 0.00 | 52 | 1005.3 |
| 20260505194556 | 68 | 144 | 0.0 | 2.0 | 0.00 | 0.00 | 0.00 | 51 | 1005.2 |
| 20260505194531 | 68 | 144 | 0.0 | 2.0 | 0.00 | 0.00 | 0.00 | 51 | 1004.8 |
| 20260505194045 | 69 | 144 | 0.0 | 2.0 | 0.00 | 0.00 | 0.00 | 50 | 1005.3 |
| 20260505193533 | 70 | 144 | 0.0 | 2.0 | 0.00 | 0.00 | 0.00 | 48 | 1005.2 |
| 20260505193049 | 70 | 144 | 0.0 | 2.0 | 0.00 | 0.00 | 0.00 | 47 | 1004.8 |
| 20260505193014 | 70 | 144 | 0.0 | 2.0 | 0.00 | 0.00 | 0.00 | 47 | 1005.2 |
| 20260505192502 | 71 | 143 | 1.0 | 4.0 | 0.00 | 0.00 | 0.00 | 46 | 1005.2 |
| 20260505191951 | 71 | 143 | 1.0 | 3.0 | 0.00 | 0.00 | 0.00 | 46 | 1005.2 |
| 20260505191515 | 71 | 150 | 0.0 | 3.0 | 0.00 | 0.00 | 0.00 | 46 | 1004.8 |
| 20260505191438 | 71 | 150 | 1.0 | 5.0 | 0.00 | 0.00 | 0.00 | 45 | 1005.2 |
| 20260505190924 | 71 | 149 | 2.0 | 5.0 | 0.00 | 0.00 | 0.00 | 45 | 1005.2 |
| 20260505190410 | 72 | 150 | 2.0 | 8.0 | 0.00 | 0.00 | 0.00 | 44 | 1005.1 |
| 20260505190040 | 71 | 189 | 1.0 | 8.0 | 0.00 | 0.00 | 0.00 | 44 | 1004.7 |
| 20260505185858 | 72 | 123 | 2.0 | 8.0 | 0.00 | 0.00 | 0.00 | 44 | 1005.2 |
| 20260505184848 | 72 | 153 | 2.0 | 6.0 | 0.00 | 0.00 | 0.00 | 44 | 1005.3 |
| 20260505184513 | 72 | 213 | 1.0 | 9.0 | 0.00 | 0.00 | 0.00 | 43 | 1004.8 |
| 20260505184334 | 73 | 184 | 3.0 | 10.0 | 0.00 | 0.00 | 0.00 | 43 | 1005.2 |
| 20260505183820 | 73 | 174 | 3.0 | 10.0 | 0.00 | 0.00 | 0.00 | 43 | 1005.2 |
| 20260505183306 | 73 | 170 | 2.0 | 10.0 | 0.00 | 0.00 | 0.00 | 43 | 1005.1 |
| 20260505183039 | 73 | 186 | 1.0 | 6.0 | 0.00 | 0.00 | 0.00 | 43 | 1004.7 |
| 20260505182751 | 73 | 173 | 2.0 | 8.0 | 0.00 | 0.00 | 0.00 | 42 | 1005.1 |
| 20260505182237 | 74 | 142 | 3.0 | 8.0 | 0.00 | 0.00 | 0.00 | 42 | 1005.2 |
| 20260505181722 | 74 | 158 | 3.0 | 9.0 | 0.00 | 0.00 | 0.00 | 42 | 1005.1 |
| 20260505181659 | 73 | 158 | 1.0 | 8.0 | 0.00 | 0.00 | 0.00 | 42 | 1004.7 |
| 20260505181208 | 74 | 190 | 4.0 | 8.0 | 0.00 | 0.00 | 0.00 | 41 | 1005.0 |